EW3970 Weather Reports


time (UTC)temp
F
wind
direction
speed
knots
gust
knots
rain 1hr
in
rain 24hr
in
rain mn
in
humidity
%
barometer
mb
20260507033045 65 283 0.9 6.1 0.00 0.00 0.00 68 1016.5
20260507031551 65 254 1.7 7.0 0.00 0.00 0.00 66 1016.3
20260507030047 66 263 4.3 7.0 0.00 0.00 0.00 64 1016.2
20260507024559 67 0 2.6 5.2 0.00 0.00 0.00 64 1016.0
20260507023037 67 259 2.6 7.0 0.00 0.00 0.00 61 1015.7
20260507021540 69 321 3.5 7.8 0.00 0.00 0.00 58 1015.6
20260507020036 70 283 4.3 7.0 0.00 0.00 0.00 58 1015.5
20260507014547 72 253 2.6 5.2 0.00 0.00 0.00 59 1015.4
20260507013040 72 240 0.0 2.6 0.00 0.00 0.00 61 1015.3
20260507011544 72 0 0.0 4.3 0.00 0.00 0.00 59 1015.2
20260507010041 72 231 0.9 7.8 0.00 0.00 0.00 59 1015.1
20260507004536 72 236 0.9 7.0 0.00 0.00 0.00 59 1015.1
20260507003039 74 240 0.9 3.5 0.00 0.00 0.00 52 1015.1
20260507001538 74 0 0.0 2.6 0.00 0.00 0.00 52 1015.0
20260507000036 74 247 1.7 5.2 0.00 0.00 0.00 55 1015.1
20260506234545 73 184 0.9 7.8 0.00 0.00 0.00 53 1015.1
20260506233046 73 139 2.6 8.7 0.00 0.00 0.00 54 1015.1
20260506231536 73 196 2.6 8.7 0.00 0.00 0.00 53 1015.3
20260506230035 74 262 3.5 9.6 0.00 0.00 0.00 52 1015.4
20260506224540 73 243 4.3 12.2 0.00 0.00 0.00 51 1015.7
20260506223035 74 174 1.7 7.8 0.00 0.00 0.00 52 1015.9
20260506221538 74 248 0.9 8.7 0.00 0.00 0.00 52 1016.0
20260506220037 74 225 1.7 10.4 0.00 0.00 0.00 51 1016.2
20260506214537 74 182 2.6 7.8 0.00 0.00 0.00 48 1016.4
20260506213038 75 181 2.6 7.0 0.00 0.00 0.00 46 1016.5
20260506211535 75 226 0.9 8.7 0.00 0.00 0.00 47 1016.6
20260506210038 74 200 3.5 9.6 0.00 0.00 0.00 50 1016.7
20260506204540 74 237 2.6 7.0 0.00 0.00 0.00 47 1016.8
20260506203040 76 262 1.7 5.2 0.00 0.00 0.00 46 1016.9
20260506201539 75 218 0.9 4.3 0.00 0.00 0.00 49 1017.1
20260506200040 75 240 1.7 4.3 0.00 0.00 0.00 47 1017.2
20260506194536 74 270 0.9 5.2 0.00 0.00 0.00 50 1017.4
20260506193033 72 235 1.7 7.0 0.00 0.00 0.00 51 1017.6
20260506191535 74 226 0.9 3.5 0.00 0.00 0.00 52 1017.7
20260506190039 72 260 0.9 6.1 0.00 0.00 0.00 55 1017.7
20260506184545 70 223 2.6 7.8 0.00 0.02 0.00 58 1017.9
20260506183034 69 0 1.7 7.0 0.00 0.02 0.00 61 1017.9
20260506181538 69 198 0.9 9.6 0.00 0.02 0.00 62 1018.0
20260506180038 71 229 0.9 5.2 0.00 0.02 0.00 60 1018.0
20260506174537 68 258 0.0 3.5 0.00 0.02 0.00 60 1018.1
20260506173054 69 0 0.0 4.3 0.00 0.02 0.00 58 1018.0
20260506171536 68 291 0.9 5.2 0.00 0.02 0.00 58 1018.0
20260506170040 69 0 0.0 3.5 0.00 0.02 0.00 56 1018.0
20260506164535 69 0 0.9 4.3 0.00 0.02 0.00 58 1018.0
20260506163040 67 0 0.0 0.0 0.00 0.02 0.00 60 1018.1
20260506161535 67 0 0.0 4.3 0.00 0.02 0.00 64 1017.9
20260506160038 65 0 0.0 3.5 0.00 0.02 0.00 67 1018.1
20260506154537 64 0 0.0 5.2 0.00 0.02 0.00 70 1018.1
20260506153032 63 0 0.9 3.5 0.00 0.02 0.00 71 1018.2
20260506151539 62 77 0.9 2.6 0.00 0.02 0.00 71 1018.2
20260506150042 61 84 0.9 3.5 0.00 0.02 0.00 71 1018.1
20260506144539 60 0 1.7 2.6 0.00 0.02 0.00 71 1018.1
20260506143040 59 0 0.0 2.6 0.00 0.02 0.00 72 1018.0
20260506141534 57 79 0.9 2.6 0.00 0.02 0.00 75 1018.0
20260506140036 57 65 0.9 2.6 0.00 0.02 0.00 76 1018.0
20260506134535 56 88 0.9 1.7 0.00 0.02 0.00 79 1017.9
20260506133039 55 0 0.0 0.0 0.00 0.02 0.00 82 1017.8
20260506131545 54 0 0.0 0.0 0.00 0.02 0.00 84 1017.6
20260506130053 54 0 0.0 0.0 0.00 0.02 0.00 84 1017.4
20260506124535 54 0 0.0 0.9 0.00 0.02 0.00 84 1017.3
20260506123037 54 0 0.0 0.0 0.00 0.02 0.00 85 1017.2
20260506121539 54 0 0.0 0.0 0.00 0.02 0.00 84 1017.2
20260506120036 54 0 0.0 0.0 0.00 0.02 0.00 84 1017.2
20260506114535 55 0 0.0 0.0 0.00 0.02 0.00 85 1017.1
20260506113040 55 0 0.0 0.0 0.00 0.02 0.00 85 1016.9
20260506111535 56 0 0.0 0.0 0.00 0.02 0.00 85 1016.8
20260506110043 56 0 0.0 0.0 0.00 0.02 0.00 85 1016.8
20260506104538 56 0 0.0 0.0 0.00 0.02 0.00 85 1017.0
20260506103045 56 0 0.9 2.6 0.00 0.02 0.00 85 1017.0
20260506101548 57 94 0.0 0.9 0.00 0.02 0.00 87 1017.0
20260506100048 57 0 0.0 0.0 0.00 0.02 0.00 87 1016.9
20260506094536 57 0 0.0 0.0 0.00 0.12 0.00 87 1017.1
20260506093043 57 0 0.0 1.7 0.00 0.12 0.00 87 1017.1
20260506091539 57 0 0.0 0.0 0.00 0.12 0.00 89 1017.1
20260506090034 57 0 0.0 0.0 0.00 0.12 0.00 89 1017.4
20260506084549 56 0 0.0 0.0 0.00 0.12 0.00 90 1017.3
20260506083034 56 0 0.0 0.0 0.00 0.12 0.00 90 1017.4
20260506081545 56 0 0.0 0.0 0.00 0.12 0.00 89 1017.5
20260506073044 57 0 0.0 0.0 0.00 0.12 0.00 87 1017.5
20260506071541 57 0 0.0 0.0 0.00 0.12 0.00 87 1017.6
20260506061537 58 0 0.0 0.9 0.00 0.12 0.12 85 1017.2
20260506044625 60 0 0.0 0.9 0.00 0.12 0.12 79 1016.3
20260506043034 60 0 0.0 0.0 0.00 0.12 0.12 77 1016.1
20260506041536 61 0 0.0 0.0 0.00 0.12 0.12 76 1016.1
20260506040039 61 0 0.0 0.0 0.00 0.12 0.12 74 1015.8
20260506034602 62 0 0.0 0.0 0.00 0.12 0.12 73 1015.6